Location: Pasarilla del Rebollar
(40.6790°N, 5.0062°W)
Time: 11:03:52
(UTC+00:00)

Intercosmos 24 - Pass Details

Date: 22 April 2026
Orbit: 498 x 2351 km, 82.6° (Epoch: 15 May)

Event Time Altitude Azimuth Distance (km) Brightness Sun altitude
Rises 02:55:25 0° 351° (N) 4,225 8.8 -25.9°
Reaches altitude 10° 02:58:37 10° 350° (N) 2,961 7.9 -25.5°
Maximum altitude 03:05:07 79° 266° (W) 820 4.4 -24.6°
Enters shadow 03:05:39 69° 208° (SSW) 831 4.4 -24.6°
